contact:dominique.lefevre@mio.osupytheas.fr, maurice.libes@osupytheas.fr, didier.mallarino@osupytheas.fr
Project:EMSO http://www.emso-fr.org/EMSO-France
Depth: 2436.0 m
Title:EMSO Ligure Ouest : Data MII capteur MICROCAT
DateTime_Computer,Latitude,Longitude,Temperature,Conductivity,Pressure,DateTime_Instrument
DateTime_Computer,Latitude,Longitude,degC,S m-1,dbar,DateTime_Instrument
2020-07-10T00:02:58Z,42.805,6.029,13.2974,4.59981,2470.203,2020-7-10T02:03:44Z
2020-07-10T00:06:01Z,42.805,6.029,13.2975,4.59979,2470.203,2020-7-10T02:06:47Z
2020-07-10T00:09:04Z,42.805,6.029,13.2975,4.59978,2470.203,2020-7-10T02:09:51Z
2020-07-10T00:12:08Z,42.805,6.029,13.2974,4.59978,2470.203,2020-7-10T02:12:54Z
2020-07-10T00:15:11Z,42.805,6.029,13.2974,4.59978,2470.203,2020-7-10T02:15:57Z
2020-07-10T00:18:14Z,42.805,6.029,13.2971,4.59978,2470.194,2020-7-10T02:19:00Z
2020-07-10T00:21:17Z,42.805,6.029,13.2976,4.59978,2470.217,2020-7-10T02:22:04Z
2020-07-10T00:24:21Z,42.805,6.029,13.2970,4.59979,2470.203,2020-7-10T02:25:07Z
2020-07-10T00:27:24Z,42.805,6.029,13.2973,4.59977,2470.217,2020-7-10T02:28:10Z
2020-07-10T00:30:27Z,42.805,6.029,13.2976,4.59978,2470.217,2020-7-10T02:31:13Z
2020-07-10T00:33:30Z,42.805,6.029,13.2973,4.59979,2470.156,2020-7-10T02:34:17Z
2020-07-10T00:36:33Z,42.805,6.029,13.2977,4.59978,2470.217,2020-7-10T02:37:20Z
2020-07-10T00:39:37Z,42.805,6.029,13.2976,4.59978,2470.18,2020-7-10T02:40:23Z
2020-07-10T00:42:40Z,42.805,6.029,13.2974,4.59978,2470.194,2020-7-10T02:43:26Z
2020-07-10T00:45:43Z,42.805,6.029,13.2975,4.59978,2470.18,2020-7-10T02:46:30Z
2020-07-10T00:48:47Z,42.805,6.029,13.2974,4.59978,2470.194,2020-7-10T02:49:33Z
2020-07-10T00:51:50Z,42.805,6.029,13.2976,4.59978,2470.18,2020-7-10T02:52:36Z
2020-07-10T00:54:53Z,42.805,6.029,13.2969,4.59979,2470.156,2020-7-10T02:55:40Z
2020-07-10T00:57:56Z,42.805,6.029,13.2976,4.59978,2470.18,2020-7-10T02:58:43Z
2020-07-10T01:01:00Z,42.805,6.029,13.2972,4.59978,2470.18,2020-7-10T03:01:46Z
2020-07-10T01:04:03Z,42.805,6.029,13.2975,4.59976,2470.143,2020-7-10T03:04:49Z
2020-07-10T01:07:06Z,42.805,6.029,13.2972,4.59979,2470.18,2020-7-10T03:07:52Z
2020-07-10T01:10:09Z,42.805,6.029,13.2974,4.59979,2470.203,2020-7-10T03:10:56Z
2020-07-10T01:13:13Z,42.805,6.029,13.2974,4.59978,2470.156,2020-7-10T03:13:59Z
2020-07-10T01:16:16Z,42.805,6.029,13.2974,4.59981,2470.156,2020-7-10T03:17:02Z
2020-07-10T01:19:19Z,42.805,6.029,13.2976,4.59976,2470.156,2020-7-10T03:20:05Z
2020-07-10T01:22:22Z,42.805,6.029,13.2973,4.59978,2470.156,2020-7-10T03:23:08Z
2020-07-10T01:25:25Z,42.805,6.029,13.2973,4.59977,2470.133,2020-7-10T03:26:12Z
2020-07-10T01:28:29Z,42.805,6.029,13.2972,4.59978,2470.171,2020-7-10T03:29:15Z
2020-07-10T01:31:32Z,42.805,6.029,13.2971,4.59977,2470.156,2020-7-10T03:32:18Z
2020-07-10T01:34:35Z,42.805,6.029,13.2974,4.59978,2470.166,2020-7-10T03:35:21Z
2020-07-10T01:37:38Z,42.805,6.029,13.2971,4.59978,2470.133,2020-7-10T03:38:25Z
2020-07-10T01:40:42Z,42.805,6.029,13.2972,4.59976,2470.133,2020-7-10T03:41:28Z
2020-07-10T01:43:45Z,42.805,6.029,13.2973,4.59978,2470.171,2020-7-10T03:44:31Z
2020-07-10T01:46:48Z,42.805,6.029,13.2972,4.59977,2470.133,2020-7-10T03:47:34Z
2020-07-10T01:49:51Z,42.805,6.029,13.2973,4.59978,2470.18,2020-7-10T03:50:38Z
2020-07-10T01:52:54Z,42.805,6.029,13.2971,4.59978,2470.133,2020-7-10T03:53:41Z
2020-07-10T01:55:58Z,42.805,6.029,13.2975,4.59977,2470.171,2020-7-10T03:56:44Z
2020-07-10T01:59:01Z,42.805,6.029,13.2973,4.59976,2470.171,2020-7-10T03:59:47Z
2020-07-10T02:02:04Z,42.805,6.029,13.2978,4.59976,2470.133,2020-7-10T04:02:51Z
2020-07-10T02:05:07Z,42.805,6.029,13.2971,4.59978,2470.133,2020-7-10T04:05:54Z
2020-07-10T02:08:11Z,42.805,6.029,13.2974,4.59978,2470.147,2020-7-10T04:08:57Z
2020-07-10T02:11:14Z,42.805,6.029,13.2972,4.59978,2470.11,2020-7-10T04:12:00Z
2020-07-10T02:14:17Z,42.805,6.029,13.2973,4.59976,2470.147,2020-7-10T04:15:03Z
2020-07-10T02:17:20Z,42.805,6.029,13.2972,4.59976,2470.11,2020-7-10T04:18:07Z
2020-07-10T02:20:23Z,42.805,6.029,13.2976,4.59976,2470.11,2020-7-10T04:21:10Z
2020-07-10T02:23:27Z,42.805,6.029,13.2974,4.59979,2470.11,2020-7-10T04:24:13Z
2020-07-10T02:26:30Z,42.805,6.029,13.2976,4.59979,2470.124,2020-7-10T04:27:16Z
2020-07-10T02:29:33Z,42.805,6.029,13.2972,4.59976,2470.147,2020-7-10T04:30:20Z
2020-07-10T02:32:36Z,42.805,6.029,13.2976,4.59976,2470.147,2020-7-10T04:33:23Z
2020-07-10T02:35:40Z,42.805,6.029,13.2975,4.59978,2470.11,2020-7-10T04:36:26Z
2020-07-10T02:38:43Z,42.805,6.029,13.2973,4.59976,2470.11,2020-7-10T04:39:29Z
2020-07-10T02:41:46Z,42.805,6.029,13.2971,4.59976,2470.147,2020-7-10T04:42:32Z
2020-07-10T02:44:49Z,42.805,6.029,13.2970,4.59976,2470.11,2020-7-10T04:45:36Z
2020-07-10T02:47:53Z,42.805,6.029,13.2973,4.59976,2470.133,2020-7-10T04:48:39Z
2020-07-10T02:50:56Z,42.805,6.029,13.2973,4.59976,2470.133,2020-7-10T04:51:42Z
2020-07-10T02:53:59Z,42.805,6.029,13.2976,4.59976,2470.11,2020-7-10T04:54:46Z
2020-07-10T02:57:02Z,42.805,6.029,13.2972,4.59977,2470.124,2020-7-10T04:57:49Z
2020-07-10T03:00:06Z,42.805,6.029,13.2972,4.59976,2470.133,2020-7-10T05:00:52Z
2020-07-10T03:03:09Z,42.805,6.029,13.2976,4.59976,2470.11,2020-7-10T05:03:55Z
2020-07-10T03:06:12Z,42.805,6.029,13.2975,4.59976,2470.04,2020-7-10T05:06:58Z
2020-07-10T03:09:15Z,42.805,6.029,13.2971,4.59976,2470.087,2020-7-10T05:10:02Z
2020-07-10T03:12:19Z,42.805,6.029,13.2974,4.59976,2470.133,2020-7-10T05:13:05Z
2020-07-10T03:15:22Z,42.805,6.029,13.2974,4.59976,2470.087,2020-7-10T05:16:08Z
2020-07-10T03:18:25Z,42.805,6.029,13.2975,4.59976,2470.096,2020-7-10T05:19:11Z
2020-07-10T03:21:28Z,42.805,6.029,13.2973,4.59976,2470.11,2020-7-10T05:22:15Z
2020-07-10T03:24:31Z,42.805,6.029,13.2971,4.59976,2470.147,2020-7-10T05:25:18Z
2020-07-10T03:27:35Z,42.805,6.029,13.2970,4.59976,2470.087,2020-7-10T05:28:21Z
2020-07-10T03:30:38Z,42.805,6.029,13.2976,4.59976,2470.124,2020-7-10T05:31:24Z
2020-07-10T03:33:41Z,42.805,6.029,13.2973,4.59976,2470.087,2020-7-10T05:34:28Z
2020-07-10T03:36:44Z,42.805,6.029,13.2974,4.59978,2470.1,2020-7-10T05:37:31Z
2020-07-10T03:39:48Z,42.805,6.029,13.2974,4.59976,2470.1,2020-7-10T05:40:34Z
2020-07-10T03:42:51Z,42.805,6.029,13.2971,4.59976,2470.11,2020-7-10T05:43:37Z
2020-07-10T03:45:54Z,42.805,6.029,13.2971,4.59976,2470.087,2020-7-10T05:46:41Z
2020-07-10T03:48:57Z,42.805,6.029,13.2974,4.59976,2470.087,2020-7-10T05:49:44Z
2020-07-10T03:52:01Z,42.805,6.029,13.2974,4.59976,2470.1,2020-7-10T05:52:47Z
2020-07-10T03:55:04Z,42.805,6.029,13.2974,4.59976,2470.04,2020-7-10T05:55:50Z
2020-07-10T03:58:07Z,42.805,6.029,13.2973,4.59976,2470.077,2020-7-10T05:58:53Z
2020-07-10T04:01:10Z,42.805,6.029,13.2974,4.59976,2470.077,2020-7-10T06:01:57Z
2020-07-10T04:04:14Z,42.805,6.029,13.2972,4.59976,2470.1,2020-7-10T06:05:00Z
2020-07-10T04:07:17Z,42.805,6.029,13.2973,4.59974,2470.1,2020-7-10T06:08:03Z
2020-07-10T04:10:20Z,42.805,6.029,13.2971,4.59976,2470.087,2020-7-10T06:11:06Z
2020-07-10T04:13:23Z,42.805,6.029,13.2971,4.59976,2470.063,2020-7-10T06:14:09Z
2020-07-10T04:16:26Z,42.805,6.029,13.2974,4.59975,2470.1,2020-7-10T06:17:13Z
2020-07-10T04:19:29Z,42.805,6.029,13.2975,4.59976,2470.11,2020-7-10T06:20:16Z
2020-07-10T04:22:33Z,42.805,6.029,13.2971,4.59976,2470.063,2020-7-10T06:23:19Z
2020-07-10T04:25:36Z,42.805,6.029,13.2976,4.59975,2470.077,2020-7-10T06:26:22Z
2020-07-10T04:28:39Z,42.805,6.029,13.2971,4.59976,2470.087,2020-7-10T06:29:26Z
2020-07-10T04:31:43Z,42.805,6.029,13.2974,4.59975,2470.087,2020-7-10T06:32:29Z
2020-07-10T04:34:46Z,42.805,6.029,13.2972,4.59975,2470.053,2020-7-10T06:35:32Z
2020-07-10T04:37:49Z,42.805,6.029,13.2974,4.59975,2470.063,2020-7-10T06:38:35Z
2020-07-10T04:40:52Z,42.805,6.029,13.2972,4.59976,2470.063,2020-7-10T06:41:39Z
2020-07-10T04:43:55Z,42.805,6.029,13.2974,4.59975,2470.063,2020-7-10T06:44:42Z
2020-07-10T04:46:59Z,42.805,6.029,13.2971,4.59975,2470.1,2020-7-10T06:47:45Z
2020-07-10T04:50:02Z,42.805,6.029,13.2972,4.59976,2470.077,2020-7-10T06:50:48Z
2020-07-10T04:53:05Z,42.805,6.029,13.2974,4.59976,2470.063,2020-7-10T06:53:52Z
2020-07-10T04:56:09Z,42.805,6.029,13.2977,4.59976,2470.063,2020-7-10T06:56:55Z
2020-07-10T04:59:12Z,42.805,6.029,13.2968,4.59976,2470.063,2020-7-10T06:59:58Z
2020-07-10T05:02:15Z,42.805,6.029,13.2970,4.59976,2470.077,2020-7-10T07:03:01Z
2020-07-10T05:05:18Z,42.805,6.029,13.2973,4.59975,2470.04,2020-7-10T07:06:05Z
2020-07-10T05:08:21Z,42.805,6.029,13.2975,4.59975,2470.1,2020-7-10T07:09:08Z
2020-07-10T05:11:25Z,42.805,6.029,13.2973,4.59975,2470.063,2020-7-10T07:12:11Z
2020-07-10T05:14:28Z,42.805,6.029,13.2977,4.59976,2470.077,2020-7-10T07:15:14Z
2020-07-10T05:17:31Z,42.805,6.029,13.2973,4.59976,2470.03,2020-7-10T07:18:18Z
2020-07-10T05:20:35Z,42.805,6.029,13.2974,4.59975,2470.04,2020-7-10T07:21:21Z
2020-07-10T05:23:38Z,42.805,6.029,13.2971,4.59975,2470.063,2020-7-10T07:24:24Z
2020-07-10T05:26:41Z,42.805,6.029,13.2975,4.59976,2470.077,2020-7-10T07:27:27Z
2020-07-10T05:29:44Z,42.805,6.029,13.2974,4.59975,2470.053,2020-7-10T07:30:31Z
2020-07-10T05:32:48Z,42.805,6.029,13.2974,4.59976,2470.077,2020-7-10T07:33:34Z
2020-07-10T05:35:51Z,42.805,6.029,13.2975,4.59976,2470.04,2020-7-10T07:36:37Z
2020-07-10T05:38:54Z,42.805,6.029,13.2975,4.59975,2470.053,2020-7-10T07:39:41Z
2020-07-10T05:41:58Z,42.805,6.029,13.2974,4.59976,2470.063,2020-7-10T07:42:44Z
2020-07-10T05:45:01Z,42.805,6.029,13.2973,4.59975,2470.04,2020-7-10T07:45:47Z
2020-07-10T05:48:04Z,42.805,6.029,13.2975,4.59976,2470.017,2020-7-10T07:48:50Z
2020-07-10T05:51:07Z,42.805,6.029,13.2976,4.59975,2470.063,2020-7-10T07:51:54Z
2020-07-10T05:54:10Z,42.805,6.029,13.2972,4.59975,2470.063,2020-7-10T07:54:57Z
2020-07-10T05:57:14Z,42.805,6.029,13.2974,4.59976,2470.017,2020-7-10T07:58:00Z
2020-07-10T06:00:17Z,42.805,6.029,13.2977,4.59976,2470.053,2020-7-10T08:01:03Z
2020-07-10T06:03:20Z,42.805,6.029,13.2969,4.59975,2470.053,2020-7-10T08:04:06Z
2020-07-10T06:06:23Z,42.805,6.029,13.2971,4.59975,2470.063,2020-7-10T08:07:10Z
2020-07-10T06:09:27Z,42.805,6.029,13.2974,4.59975,2470.04,2020-7-10T08:10:13Z
2020-07-10T06:12:30Z,42.805,6.029,13.2976,4.59975,2470.077,2020-7-10T08:13:16Z
2020-07-10T06:15:33Z,42.805,6.029,13.2971,4.59976,2470.053,2020-7-10T08:16:19Z
2020-07-10T06:18:36Z,42.805,6.029,13.2974,4.59976,2470.1,2020-7-10T08:19:23Z
2020-07-10T06:21:40Z,42.805,6.029,13.2974,4.59974,2470.063,2020-7-10T08:22:26Z
2020-07-10T06:24:43Z,42.805,6.029,13.2973,4.59974,2470.04,2020-7-10T08:25:29Z
2020-07-10T06:27:46Z,42.805,6.029,13.2971,4.59975,2470.077,2020-7-10T08:28:33Z
2020-07-10T06:30:49Z,42.805,6.029,13.2971,4.59975,2470.087,2020-7-10T08:31:36Z
2020-07-10T06:33:53Z,42.805,6.029,13.2977,4.59976,2470.053,2020-7-10T08:34:39Z
2020-07-10T06:36:56Z,42.805,6.029,13.2975,4.59976,2470.077,2020-7-10T08:37:42Z
2020-07-10T06:39:59Z,42.805,6.029,13.2972,4.59976,2470.063,2020-7-10T08:40:45Z
2020-07-10T06:43:02Z,42.805,6.029,13.2972,4.59976,2470.063,2020-7-10T08:43:49Z
2020-07-10T06:46:06Z,42.805,6.029,13.2971,4.59975,2470.1,2020-7-10T08:46:52Z
2020-07-10T06:49:09Z,42.805,6.029,13.2969,4.59975,2470.087,2020-7-10T08:49:56Z
2020-07-10T06:52:12Z,42.805,6.029,13.2976,4.59976,2470.053,2020-7-10T08:52:59Z
2020-07-10T06:55:16Z,42.805,6.029,13.2972,4.59974,2470.053,2020-7-10T08:56:02Z
2020-07-10T06:58:19Z,42.805,6.029,13.2972,4.59975,2470.053,2020-7-10T08:59:05Z
2020-07-10T07:01:22Z,42.805,6.029,13.2976,4.59975,2470.087,2020-7-10T09:02:08Z
2020-07-10T07:04:25Z,42.805,6.029,13.2976,4.59975,2470.063,2020-7-10T09:05:12Z
2020-07-10T07:07:29Z,42.805,6.029,13.2974,4.59974,2470.063,2020-7-10T09:08:15Z
2020-07-10T07:10:32Z,42.805,6.029,13.2968,4.59974,2470.087,2020-7-10T09:11:18Z
2020-07-10T07:13:35Z,42.805,6.029,13.2972,4.59974,2470.077,2020-7-10T09:14:21Z
2020-07-10T07:16:38Z,42.805,6.029,13.2971,4.59976,2470.063,2020-7-10T09:17:25Z
2020-07-10T07:19:42Z,42.805,6.029,13.2971,4.59976,2470.1,2020-7-10T09:20:28Z
2020-07-10T07:22:45Z,42.805,6.029,13.2976,4.59976,2470.087,2020-7-10T09:23:31Z
2020-07-10T07:25:48Z,42.805,6.029,13.2975,4.59975,2470.087,2020-7-10T09:26:34Z
2020-07-10T07:28:51Z,42.805,6.029,13.2974,4.59975,2470.133,2020-7-10T09:29:38Z
2020-07-10T07:31:55Z,42.805,6.029,13.2974,4.59975,2470.063,2020-7-10T09:32:41Z
2020-07-10T07:34:58Z,42.805,6.029,13.2975,4.59974,2470.1,2020-7-10T09:35:44Z
2020-07-10T07:38:01Z,42.805,6.029,13.2973,4.59975,2470.049,2020-7-10T09:38:48Z
2020-07-10T07:41:04Z,42.805,6.029,13.2976,4.59976,2470.087,2020-7-10T09:41:51Z
2020-07-10T07:44:08Z,42.805,6.029,13.2976,4.59976,2470.087,2020-7-10T09:44:54Z
2020-07-10T07:47:11Z,42.805,6.029,13.2972,4.59974,2470.11,2020-7-10T09:47:57Z
2020-07-10T07:50:14Z,42.805,6.029,13.2975,4.59975,2470.077,2020-7-10T09:51:00Z
2020-07-10T07:53:17Z,42.805,6.029,13.2974,4.59974,2470.087,2020-7-10T09:54:04Z
2020-07-10T07:56:21Z,42.805,6.029,13.2974,4.59976,2470.087,2020-7-10T09:57:07Z
2020-07-10T07:59:24Z,42.805,6.029,13.2971,4.59974,2470.1,2020-7-10T10:00:10Z
2020-07-10T08:02:27Z,42.805,6.029,13.2972,4.59974,2470.063,2020-7-10T10:03:14Z
2020-07-10T08:05:30Z,42.805,6.029,13.2969,4.59975,2470.1,2020-7-10T10:06:17Z
2020-07-10T08:08:34Z,42.805,6.029,13.2968,4.59976,2470.11,2020-7-10T10:09:20Z
2020-07-10T08:11:37Z,42.805,6.029,13.2968,4.59975,2470.087,2020-7-10T10:12:23Z
2020-07-10T08:14:40Z,42.805,6.029,13.2976,4.59975,2470.124,2020-7-10T10:15:27Z
2020-07-10T08:17:43Z,42.805,6.029,13.2973,4.59976,2470.11,2020-7-10T10:18:30Z
2020-07-10T08:20:47Z,42.805,6.029,13.2971,4.59974,2470.124,2020-7-10T10:21:33Z
2020-07-10T08:23:50Z,42.805,6.029,13.2969,4.59974,2470.133,2020-7-10T10:24:36Z
2020-07-10T08:26:53Z,42.805,6.029,13.2972,4.59976,2470.087,2020-7-10T10:27:39Z
2020-07-10T08:29:56Z,42.805,6.029,13.2971,4.59976,2470.133,2020-7-10T10:30:43Z
2020-07-10T08:33:00Z,42.805,6.029,13.2974,4.59975,2470.133,2020-7-10T10:33:46Z
2020-07-10T08:36:03Z,42.805,6.029,13.2976,4.59973,2470.124,2020-7-10T10:36:49Z
2020-07-10T08:39:06Z,42.805,6.029,13.2973,4.59976,2470.11,2020-7-10T10:39:52Z
2020-07-10T08:42:09Z,42.805,6.029,13.2971,4.59975,2470.124,2020-7-10T10:42:56Z
2020-07-10T08:45:13Z,42.805,6.029,13.2972,4.59974,2470.11,2020-7-10T10:45:59Z
2020-07-10T08:48:16Z,42.805,6.029,13.2974,4.59976,2470.133,2020-7-10T10:49:03Z
2020-07-10T08:51:20Z,42.805,6.029,13.2970,4.59975,2470.11,2020-7-10T10:52:06Z
2020-07-10T08:54:23Z,42.805,6.029,13.2972,4.59975,2470.124,2020-7-10T10:55:09Z
2020-07-10T08:57:26Z,42.805,6.029,13.2974,4.59973,2470.11,2020-7-10T10:58:12Z
2020-07-10T09:00:29Z,42.805,6.029,13.2976,4.59974,2470.087,2020-7-10T11:01:16Z
2020-07-10T09:03:32Z,42.805,6.029,13.2970,4.59974,2470.133,2020-7-10T11:04:19Z
2020-07-10T09:06:36Z,42.805,6.029,13.2973,4.59976,2470.11,2020-7-10T11:07:22Z
2020-07-10T09:09:39Z,42.805,6.029,13.2976,4.59974,2470.133,2020-7-10T11:10:25Z
2020-07-10T09:12:42Z,42.805,6.029,13.2973,4.59973,2470.133,2020-7-10T11:13:28Z
2020-07-10T09:15:45Z,42.805,6.029,13.2971,4.59978,2470.133,2020-7-10T11:16:32Z
2020-07-10T09:18:49Z,42.805,6.029,13.2974,4.59975,2470.124,2020-7-10T11:19:35Z
2020-07-10T09:21:52Z,42.805,6.029,13.2970,4.59976,2470.133,2020-7-10T11:22:38Z
2020-07-10T09:24:55Z,42.805,6.029,13.2976,4.59974,2470.124,2020-7-10T11:25:41Z
2020-07-10T09:27:58Z,42.805,6.029,13.2971,4.59974,2470.124,2020-7-10T11:28:45Z
2020-07-10T09:31:01Z,42.805,6.029,13.2976,4.59975,2470.11,2020-7-10T11:31:48Z
2020-07-10T09:34:05Z,42.805,6.029,13.2971,4.59975,2470.11,2020-7-10T11:34:51Z
2020-07-10T09:37:08Z,42.805,6.029,13.2971,4.59976,2470.11,2020-7-10T11:37:54Z
2020-07-10T09:40:11Z,42.805,6.029,13.2974,4.59975,2470.156,2020-7-10T11:40:58Z
2020-07-10T09:43:14Z,42.805,6.029,13.2976,4.59974,2470.124,2020-7-10T11:44:01Z
2020-07-10T09:46:18Z,42.805,6.029,13.2975,4.59974,2470.133,2020-7-10T11:47:04Z
2020-07-10T09:49:21Z,42.805,6.029,13.2974,4.59974,2470.147,2020-7-10T11:50:08Z
2020-07-10T09:52:24Z,42.805,6.029,13.2972,4.59974,2470.194,2020-7-10T11:53:11Z
2020-07-10T09:55:28Z,42.805,6.029,13.2971,4.59976,2470.133,2020-7-10T11:56:14Z
2020-07-10T09:58:31Z,42.805,6.029,13.2970,4.59975,2470.171,2020-7-10T11:59:17Z
2020-07-10T10:01:34Z,42.805,6.029,13.2971,4.59975,2470.133,2020-7-10T12:02:21Z
2020-07-10T10:04:38Z,42.805,6.029,13.2972,4.59974,2470.124,2020-7-10T12:05:24Z
2020-07-10T10:07:41Z,42.805,6.029,13.2974,4.59975,2470.171,2020-7-10T12:08:27Z
2020-07-10T10:10:44Z,42.805,6.029,13.2976,4.59975,2470.133,2020-7-10T12:11:31Z
2020-07-10T10:13:48Z,42.805,6.029,13.2973,4.59976,2470.133,2020-7-10T12:14:34Z
2020-07-10T10:16:51Z,42.805,6.029,13.2972,4.59976,2470.133,2020-7-10T12:17:37Z
2020-07-10T10:19:54Z,42.805,6.029,13.2972,4.59976,2470.124,2020-7-10T12:20:40Z
2020-07-10T10:22:57Z,42.805,6.029,13.2973,4.59974,2470.11,2020-7-10T12:23:44Z
2020-07-10T10:26:00Z,42.805,6.029,13.2974,4.59975,2470.147,2020-7-10T12:26:47Z
2020-07-10T10:29:04Z,42.805,6.029,13.2971,4.59974,2470.133,2020-7-10T12:29:50Z
2020-07-10T10:32:07Z,42.805,6.029,13.2969,4.59975,2470.11,2020-7-10T12:32:53Z
2020-07-10T10:35:10Z,42.805,6.029,13.2973,4.59975,2470.18,2020-7-10T12:35:57Z
2020-07-10T10:38:14Z,42.805,6.029,13.2971,4.59975,2470.11,2020-7-10T12:39:00Z
2020-07-10T10:41:17Z,42.805,6.029,13.2971,4.59973,2470.133,2020-7-10T12:42:03Z
2020-07-10T10:44:20Z,42.805,6.029,13.2974,4.59973,2470.11,2020-7-10T12:45:06Z
2020-07-10T10:47:23Z,42.805,6.029,13.2970,4.59975,2470.133,2020-7-10T12:48:09Z
2020-07-10T10:50:27Z,42.805,6.029,13.2971,4.59974,2470.11,2020-7-10T12:51:13Z
2020-07-10T10:53:30Z,42.805,6.029,13.2973,4.59973,2470.147,2020-7-10T12:54:16Z
2020-07-10T10:56:33Z,42.805,6.029,13.2971,4.59976,2470.133,2020-7-10T12:57:19Z
2020-07-10T10:59:36Z,42.805,6.029,13.2971,4.59976,2470.133,2020-7-10T13:00:23Z
2020-07-10T11:02:39Z,42.805,6.029,13.2969,4.59975,2470.11,2020-7-10T13:03:26Z
2020-07-10T11:05:43Z,42.805,6.029,13.2971,4.59976,2470.11,2020-7-10T13:06:29Z
2020-07-10T11:08:46Z,42.805,6.029,13.2971,4.59973,2470.11,2020-7-10T13:09:32Z
2020-07-10T11:11:49Z,42.805,6.029,13.2976,4.59975,2470.133,2020-7-10T13:12:36Z
2020-07-10T11:14:52Z,42.805,6.029,13.2971,4.59976,2470.124,2020-7-10T13:15:39Z
2020-07-10T11:17:56Z,42.805,6.029,13.2971,4.59973,2470.124,2020-7-10T13:18:42Z
2020-07-10T11:20:59Z,42.805,6.029,13.2971,4.59974,2470.11,2020-7-10T13:21:45Z
2020-07-10T11:24:02Z,42.805,6.029,13.2974,4.59973,2470.133,2020-7-10T13:24:49Z
2020-07-10T11:27:06Z,42.805,6.029,13.2974,4.59975,2470.11,2020-7-10T13:27:52Z
2020-07-10T11:30:09Z,42.805,6.029,13.2968,4.59973,2470.11,2020-7-10T13:30:55Z
2020-07-10T11:33:12Z,42.805,6.029,13.2972,4.59974,2470.147,2020-7-10T13:33:58Z
2020-07-10T11:36:15Z,42.805,6.029,13.2974,4.59975,2470.124,2020-7-10T13:37:01Z
2020-07-10T11:39:18Z,42.805,6.029,13.2971,4.59974,2470.11,2020-7-10T13:40:05Z
2020-07-10T11:42:22Z,42.805,6.029,13.2969,4.59976,2470.11,2020-7-10T13:43:08Z
2020-07-10T11:45:25Z,42.805,6.029,13.2968,4.59973,2470.087,2020-7-10T13:46:11Z
2020-07-10T11:48:28Z,42.805,6.029,13.2971,4.59975,2470.087,2020-7-10T13:49:14Z
2020-07-10T11:51:31Z,42.805,6.029,13.2974,4.59973,2470.133,2020-7-10T13:52:18Z
2020-07-10T11:54:34Z,42.805,6.029,13.2971,4.59974,2470.156,2020-7-10T13:55:21Z
2020-07-10T11:57:38Z,42.805,6.029,13.2971,4.59973,2470.087,2020-7-10T13:58:24Z
2020-07-10T12:00:41Z,42.805,6.029,13.2971,4.59972,2470.087,2020-7-10T14:01:27Z
2020-07-10T12:03:44Z,42.805,6.029,13.2973,4.59973,2470.1,2020-7-10T14:04:31Z
2020-07-10T12:06:48Z,42.805,6.029,13.2971,4.59973,2470.11,2020-7-10T14:07:34Z
2020-07-10T12:09:51Z,42.805,6.029,13.2974,4.59975,2470.124,2020-7-10T14:10:37Z
2020-07-10T12:12:54Z,42.805,6.029,13.2969,4.59974,2470.11,2020-7-10T14:13:40Z
2020-07-10T12:15:57Z,42.805,6.029,13.2969,4.59973,2470.1,2020-7-10T14:16:44Z
2020-07-10T12:19:01Z,42.805,6.029,13.2974,4.59973,2470.087,2020-7-10T14:19:47Z
2020-07-10T12:22:04Z,42.805,6.029,13.2969,4.59973,2470.124,2020-7-10T14:22:50Z
2020-07-10T12:25:07Z,42.805,6.029,13.2972,4.59973,2470.087,2020-7-10T14:25:53Z
2020-07-10T12:28:10Z,42.805,6.029,13.2972,4.59972,2470.063,2020-7-10T14:28:57Z
2020-07-10T12:31:14Z,42.805,6.029,13.2973,4.59972,2470.063,2020-7-10T14:32:00Z
2020-07-10T12:34:17Z,42.805,6.029,13.2969,4.59972,2470.087,2020-7-10T14:35:03Z
2020-07-10T12:37:20Z,42.805,6.029,13.2971,4.59974,2470.1,2020-7-10T14:38:06Z
2020-07-10T12:40:23Z,42.805,6.029,13.2971,4.59974,2470.063,2020-7-10T14:41:10Z
2020-07-10T12:43:27Z,42.805,6.029,13.2968,4.59973,2470.1,2020-7-10T14:44:13Z
2020-07-10T12:46:30Z,42.805,6.029,13.2973,4.59973,2470.04,2020-7-10T14:47:16Z
2020-07-10T12:49:33Z,42.805,6.029,13.2971,4.59973,2470.049,2020-7-10T14:50:20Z
2020-07-10T12:52:37Z,42.805,6.029,13.2974,4.59973,2470.063,2020-7-10T14:53:23Z
2020-07-10T12:55:40Z,42.805,6.029,13.2971,4.59973,2470.1,2020-7-10T14:56:26Z
2020-07-10T12:58:43Z,42.805,6.029,13.2973,4.59972,2470.087,2020-7-10T14:59:29Z
2020-07-10T13:01:46Z,42.805,6.029,13.2971,4.59972,2470.1,2020-7-10T15:02:33Z
2020-07-10T13:04:50Z,42.805,6.029,13.2971,4.59973,2470.077,2020-7-10T15:05:36Z
2020-07-10T13:07:53Z,42.805,6.029,13.2973,4.59975,2470.11,2020-7-10T15:08:39Z
2020-07-10T13:10:56Z,42.805,6.029,13.2973,4.59974,2470.053,2020-7-10T15:11:42Z
2020-07-10T13:13:59Z,42.805,6.029,13.2972,4.59976,2470.04,2020-7-10T15:14:46Z
2020-07-10T13:17:02Z,42.805,6.029,13.2974,4.59976,2470.087,2020-7-10T15:17:49Z
2020-07-10T13:20:06Z,42.805,6.029,13.2971,4.59975,2470.1,2020-7-10T15:20:52Z
2020-07-10T13:23:09Z,42.805,6.029,13.2971,4.59973,2470.1,2020-7-10T15:23:55Z
2020-07-10T13:26:12Z,42.805,6.029,13.2968,4.59972,2470.077,2020-7-10T15:26:59Z
2020-07-10T13:29:15Z,42.805,6.029,13.2974,4.59974,2470.063,2020-7-10T15:30:02Z
2020-07-10T13:32:19Z,42.805,6.029,13.2967,4.59973,2470.063,2020-7-10T15:33:05Z
2020-07-10T13:35:22Z,42.805,6.029,13.2971,4.59973,2470.077,2020-7-10T15:36:08Z
2020-07-10T13:38:25Z,42.805,6.029,13.2971,4.59973,2470.053,2020-7-10T15:39:11Z
2020-07-10T13:41:28Z,42.805,6.029,13.2967,4.59974,2470.017,2020-7-10T15:42:15Z
2020-07-10T13:44:31Z,42.805,6.029,13.2970,4.59976,2470.077,2020-7-10T15:45:18Z
2020-07-10T13:47:35Z,42.805,6.029,13.2968,4.59975,2470.063,2020-7-10T15:48:21Z
2020-07-10T13:50:38Z,42.805,6.029,13.2971,4.59972,2470.077,2020-7-10T15:51:24Z
2020-07-10T13:53:41Z,42.805,6.029,13.2971,4.59976,2470.1,2020-7-10T15:54:28Z
2020-07-10T13:56:45Z,42.805,6.029,13.2970,4.59976,2470.063,2020-7-10T15:57:31Z
2020-07-10T13:59:48Z,42.805,6.029,13.2973,4.59973,2470.04,2020-7-10T16:00:34Z
2020-07-10T14:02:51Z,42.805,6.029,13.2971,4.59973,2470.087,2020-7-10T16:03:37Z
2020-07-10T14:05:54Z,42.805,6.029,13.2971,4.59973,2470.063,2020-7-10T16:06:41Z
2020-07-10T14:08:58Z,42.805,6.029,13.2969,4.59975,2470.063,2020-7-10T16:09:44Z
2020-07-10T14:12:01Z,42.805,6.029,13.2969,4.59974,2470.077,2020-7-10T16:12:47Z
2020-07-10T14:15:04Z,42.805,6.029,13.2969,4.59975,2470.063,2020-7-10T16:15:51Z
2020-07-10T14:18:07Z,42.805,6.029,13.2973,4.59973,2470.017,2020-7-10T16:18:54Z
2020-07-10T14:21:11Z,42.805,6.029,13.2973,4.59973,2470.017,2020-7-10T16:21:57Z
2020-07-10T14:24:14Z,42.805,6.029,13.2974,4.59973,2470.124,2020-7-10T16:25:00Z
2020-07-10T14:27:17Z,42.805,6.029,13.2974,4.59975,2470.063,2020-7-10T16:28:03Z
2020-07-10T14:30:20Z,42.805,6.029,13.2972,4.59974,2470.063,2020-7-10T16:31:07Z
2020-07-10T14:33:23Z,42.805,6.029,13.2967,4.59974,2470.053,2020-7-10T16:34:10Z
2020-07-10T14:36:27Z,42.805,6.029,13.2970,4.59973,2470.053,2020-7-10T16:37:13Z
2020-07-10T14:39:30Z,42.805,6.029,13.2970,4.59973,2470.04,2020-7-10T16:40:16Z
2020-07-10T14:42:33Z,42.805,6.029,13.2967,4.59977,2470.04,2020-7-10T16:43:20Z
2020-07-10T14:45:36Z,42.805,6.029,13.2971,4.59973,2470.03,2020-7-10T16:46:23Z
2020-07-10T14:48:40Z,42.805,6.029,13.2973,4.59973,2470.017,2020-7-10T16:49:26Z
2020-07-10T14:51:43Z,42.805,6.029,13.2972,4.59973,2470.087,2020-7-10T16:52:29Z
2020-07-10T14:54:46Z,42.805,6.029,13.2971,4.59974,2470.04,2020-7-10T16:55:32Z
2020-07-10T14:57:49Z,42.805,6.029,13.2973,4.59973,2470.03,2020-7-10T16:58:36Z
2020-07-10T15:00:53Z,42.805,6.029,13.2976,4.59974,2470.017,2020-7-10T17:01:39Z
2020-07-10T15:03:56Z,42.805,6.029,13.2971,4.59973,2470.053,2020-7-10T17:04:42Z
2020-07-10T15:06:59Z,42.805,6.029,13.2971,4.59973,2470.063,2020-7-10T17:07:45Z
2020-07-10T15:10:02Z,42.805,6.029,13.2974,4.59976,2470.053,2020-7-10T17:10:49Z
2020-07-10T15:13:06Z,42.805,6.029,13.2973,4.59974,2470.053,2020-7-10T17:13:52Z
2020-07-10T15:16:09Z,42.805,6.029,13.2971,4.59975,2470.017,2020-7-10T17:16:55Z